counter

Jackpot

Texas Poker Multi Jackpot System

Kini Telah hadir Jackpot SUPER ROYAL FLUSH

Kini Telah hadir Jackpot 2000 (khusus table VIP keatas).

Ikutilah global jackpot yang tersedia di system kami, dengan system jackpot terbaru dan pertama di indonesia, anda dapat membeli jackpot dengan harga 100 rupiah saja dan menangkan hadiahnya hingga puluhan juta rupiah.

Jackpot bukanlah suatu keharusan untuk dibeli, namun kami memberikan suatu fitur tambahan untuk member tercinta dari www.yespoker88.com.

Terdapat tiga pilihan harga jackpot yang bisa anda beli yaitu :100,500,1000 dan 2000(khusus table VIP Keatas) rupiah.

Hadiah dari Multi jackpot system www.yespoker88.com

  1. full house x 10 harga jackpot yang anda beli.
      (contoh:anda membeli 1000 maka:1000 X10 = 10.000)
  2. four of kind x 250 harga jackpot yang anda beli
      (contoh:anda membeli 1000 maka:1000 X250 = 250.000)
  3. Straight flush x 1200
      (contoh:anda membeli 1000 maka:1000 X1200 = 1.200.000)
  4. Royal flush x 10000 harga jackpot yang anda beli
      (contoh:anda membeli 1000 maka:1000 X10000 = 10.000.000)
  5. SUPER ROYAL FLUSH x 30000 harga jackpot yang anda beli
      (contoh:anda membeli 1000 maka:1000 X30000 = 30.000.000)

Kondisi kartu

  1. full house adalah kondisi kartu dimana kartu anda dan kartu tengah dengan total 7 kartu bisa mendapatkan nilai 5 kartu dengan kombinasi 1 tris(three of kind) dan 1 pair, contoh 3 kartu 10 dan 2 kartu 5
  2. Four of kind adalah kondisi kartu dimana kartu anda dan kartu tengah dengan total 7 kartu bisa mendapatkan nilai 5 kartu dengan kombinasi 4 kartu yang sama jumlah dan 1 kartu apapun juga contoh anda mendapatkan 4 buah kartu angka 3 dan 1 kartu apapun.
  3. Staright flush adalah kondisi kartu dimana kartu anda dan kartu tengah dengan total 7 kartu bisa mendapatkan nilai 5 kartu dengan kombinasi seri / staright dengan kembang yang sama contoh : urutan kartu dari angka 5, 6, 7, 8 , 9 10 dengan kembang yg sama misalnya as hati
  4. Royal flush adalah kondisi kartu dimana kartu anda dan kartu tengah dengan total 7 kartu bisa mendapatkan nilai 5 kartu dengan kombinasi seri / staright dengan kembang yang sama tetapi kartu tersebut haruslah dimulai dari 10. contoh 10, Queen, Jack, King dan aces dengan kembang yang sama
  5. Super Royal flush adalah kondisi kartu dimana Kedua kartu anda digabung dengan 3 kartu pertama meja haruslah royal flush. contoh kartu anda 10,Queen kembang sama dan 3 kartu pertama meja adalah Jack, King dan aces dengan kembang yang sama

Demikian adalah penjelasan dari Multi Jackpot www.yespoker88.com terima kasih dan selamat bermain salam hoki dari kami

Texas Poker Jackpot Winner

TOP SUPER ROYAL FLUSH
No.TanggalNamaPriceWin
122/07 05:32SELAMET98Super Royal flush3,000,000
222/07 04:01MABHIRSuper Royal flush6,000,000
322/07 03:37MUMU1003Super Royal flush6,000,000
422/07 03:02KINGRAJSuper Royal flush15,000,000
521/07 23:05MANGKARMANSuper Royal flush6,000,000
TOP ROYAL FLUSH
No.TanggalNamaPriceWin
122/07 09:29WINNEN16Royal flush10,000,000
222/07 09:25DM194021Royal flush10,000,000
322/07 09:18OM_ARUNGRoyal flush2,000,000
422/07 08:25BAMBAM80Royal flush5,000,000
522/07 07:58CHORIDHARoyal flush2,000,000
TOP STRAIGHT FLUSH
No.TanggalNamaPriceWin
122/07 09:35PIYO65Straight Flush240,000
222/07 09:34N86WUJ477QStraight Flush2,400,000
322/07 09:33LAHTAU08Straight Flush120,000
422/07 09:31MANGGAStraight Flush240,000
522/07 09:29M4LU112Straight Flush240,000
LATEST JACKPOT
No.TanggalNamaPriceWin
122/07 09:37D90QOL6V1ZFull House5,000
222/07 09:37MINAH42Full House2,000
322/07 09:37POHAN_33Full House1,000
422/07 09:37NAD0Y088Full House2,000
522/07 09:37KISSDULU86Full House5,000
622/07 09:37MPZN68KCDAFull House10,000
722/07 09:37CHASHBACKFull House1,000
822/07 09:37WDW1234Full House2,000
922/07 09:37JUFRI212Full House5,000
1022/07 09:37PANGSAY123Full House5,000
1122/07 09:37PPOO123Full House1,000
1222/07 09:37B0MBS33Full House2,000
1322/07 09:37F92E1028Full House2,000
1422/07 09:37L4D4589Full House2,000
1522/07 09:37JONCOWKERFull House2,000
1622/07 09:37UHUIII21Full House2,000
1722/07 09:37QWASZX34Full House1,000
1822/07 09:36MNTPJ5TF7QFull House5,000
1922/07 09:36KARNA_77Full House1,000
2022/07 09:36JPKE99Full House2,000
2122/07 09:36ERNA1290Full House10,000
2222/07 09:36INL539Full House1,000
2322/07 09:36IRAWAN8894Full House1,000
2422/07 09:36LEMAN017Full House1,000
2522/07 09:36KAMPIPITFull House1,000
2622/07 09:36GIG5Full House5,000
2722/07 09:36MARBOY03Full House5,000
2822/07 09:36DONDO999Full House1,000
2922/07 09:36JIYA12Full House5,000
3022/07 09:36PUKIMAY888Full House1,000
3122/07 09:36CODOEX1Full House2,000
3222/07 09:36ALZAIR37Full House10,000
3322/07 09:36FRIDA777Four Of A Kind125,000
3422/07 09:36ANDR3001Full House5,000
3522/07 09:36AS_KRETENGFull House2,000
3622/07 09:36SUMUL33Full House5,000
3722/07 09:36LEMAN013Full House1,000
3822/07 09:36GORILA2121Full House2,000
3922/07 09:36AOEXYG5QIHFull House5,000
4022/07 09:36311285Full House2,000
4122/07 09:36G4LUH_Full House2,000
4222/07 09:36BINA577Full House5,000
4322/07 09:36PENGYU13Full House10,000
4422/07 09:36MATALAGAFull House20,000
4522/07 09:36DAUSH88Full House1,000
4622/07 09:36OSEKOSEKFull House10,000
4722/07 09:36HAPIQ0101Full House10,000
4822/07 09:36SUTARNOQFull House1,000
4922/07 09:36OBINCANFull House2,000
5022/07 09:36SUZU83Full House2,000

Domino Multi Jackpot System

Ikutilah global jackpot yang tersedia di system kami, dengan system jackpot terbaru dan pertama di indonesia, anda dapat membeli jackpot dengan harga 100 rupiah saja dan menangkan hadiahnya hingga puluhan juta rupiah.

Jackpot bukanlah suatu keharusan untuk dibeli, namun kami memberikan suatu fitur tambahan untuk member tercinta dari www.yespoker88.com.

Terdapat tiga pilihan harga jackpot yang bisa anda beli yaitu :100,500 dan 1000 rupiah.

Hadiah dari Multi jackpot system www.yespoker88.com

  1. Murni Kecil x 50 harga jackpot yang anda beli.
      (contoh:anda membeli 1000 maka:1000 X 50 = 50.000)
  2. Murni Besar x 50 harga jackpot yang anda beli
      (contoh:anda membeli 1000 maka:1000 X 50 = 50.000)
  3. BALAK x 100 harga jackpot yang anda beli
      (contoh:anda membeli 1000 maka:1000 X 100 = 100.000)
  4. ENAM DEWA x 6666 harga jackpot yang anda beli
      (contoh:anda membeli 1000 maka:1000 X 6666 = 6.666.000)

Demikian adalah penjelasan dari Multi Jackpot www.yespoker88.com terima kasih dan selamat bermain salam hoki dari kami

Domino Jackpot Winner

TOP ENAM DEWA
No.TanggalNamaPriceWin
122/07 09:32DEWI_66murni enam6,666,000
222/07 04:17ON99ON99murni enam6,666,000
322/07 04:02N1KO01murni enam6,666,000
422/07 02:41BXU4HETHYImurni enam3,333,000
522/07 02:24IV4G1GS885murni enam666,600
TOP BALAK
No.TanggalNamaPriceWin
122/07 09:35SIXDEVIL99balak100,000
222/07 09:34AMAL886balak50,000
322/07 09:34CARSAD09balak100,000
422/07 09:26REJEKI_128balak100,000
522/07 09:25SHILA17balak50,000
LATEST JACKPOT
No.TanggalNamaPriceWin
122/07 09:36W45K1T4murni kecil50,000
222/07 09:36FOREX0404murni kecil25,000
322/07 09:35SETVOLI99lucky9925,000
422/07 09:35SIXDEVIL99balak100,000
522/07 09:34VHY86murni besar50,000
622/07 09:34AMAL886balak50,000
722/07 09:34CARSAD09balak100,000
822/07 09:34SHILA17murni besar25,000
922/07 09:34ZEERROOOmurni kecil50,000
1022/07 09:33BAMDA007murni kecil25,000
1122/07 09:33QUEN179murni besar50,000
1222/07 09:33SETIA004murni kecil5,000
1322/07 09:32DEWI_66murni enam6,666,000
1422/07 09:31SALDY777lucky9910,000
1522/07 09:27UJKSTMV3ZOmurni kecil25,000
1622/07 09:26NUKE02murni besar50,000
1722/07 09:26REJEKI_128balak100,000
1822/07 09:26MAS270lucky992,500
1922/07 09:26TEMPE444murni besar5,000
2022/07 09:26GIRAB_2murni besar25,000
2122/07 09:26T4D0012914murni kecil50,000
2222/07 09:25SHILA17balak50,000
2322/07 09:23IBRO72murni kecil50,000
2422/07 09:23L444B44murni kecil50,000
2522/07 09:22GODHOE11murni kecil25,000
2622/07 09:22DIREKTUR03balak10,000
2722/07 09:22B477U7Pmurni kecil25,000
2822/07 09:22FHSTGH62PTmurni kecil50,000
2922/07 09:22GUSARTHAlucky9925,000
3022/07 09:21DIREKTUR03murni kecil5,000
3122/07 09:20ALUMP99balak50,000
3222/07 09:19HANG26murni kecil50,000
3322/07 09:19HIDAYATHImurni besar5,000
3422/07 09:18S4TNF4VCDCmurni kecil5,000
3522/07 09:18CANP1CONbalak100,000
3622/07 09:18RIZALDY84murni kecil25,000
3722/07 09:18DZH88DTS5Hmurni besar50,000
3822/07 09:17RAGASA66lucky9950,000
3922/07 09:16SADOYO01murni besar5,000
4022/07 09:16LABOOOLL99murni kecil25,000
4122/07 09:16BONJOV1984murni besar50,000
4222/07 09:16KASJA82murni kecil25,000
4322/07 09:15OMULLANKmurni besar50,000
4422/07 09:15FAHMIQIUmurni kecil50,000
4522/07 09:15DJT4K1Mmurni kecil5,000
4622/07 09:14QUEN179murni besar50,000
4722/07 09:12SONGHOLmurni kecil25,000
4822/07 09:12ALIFKA21lucky9910,000
4922/07 09:12ALFREDO16murni kecil5,000
5022/07 09:10WWLGR2Fmurni kecil50,000

Ceme Multi Jackpot System

Jackpot dilihat dari gabungan kartu pemain dengan kartu bandar. Bandar harus membeli jackpot sebanyak jumlah player yang sedang duduk. Sebagai contoh bila terdapat 3 pemain duduk bermain, dan bandar memutuskan untuk membeli jackpot Rp 1.000, maka pada periode tersebut bandar akan membeli jackpot sebanyak 3xRp1.000 = Rp3.000.

Jackpot bukanlah suatu keharusan untuk dibeli, namun kami memberikan suatu fitur tambahan untuk member tercinta dari www.yespoker88.com.

Terdapat tiga pilihan harga jackpot yang bisa anda beli yaitu :100,500 dan 1000 rupiah.

Hadiah dari Multi jackpot system www.yespoker88.com

  1. Murni Kecil x 50 harga jackpot yang anda beli.
      (contoh:anda membeli 1000 maka:1000 X 50 = 50.000)
  2. Murni Besar x 50 harga jackpot yang anda beli
      (contoh:anda membeli 1000 maka:1000 X 50 = 50.000)
  3. BALAK x 200 harga jackpot yang anda beli
      (contoh:anda membeli 1000 maka:1000 X 200 = 200.000)
  4. ENAM DEWA x 6666 harga jackpot yang anda beli
      (contoh:anda membeli 1000 maka:1000 X 6666 = 6.666.000)

Demikian adalah penjelasan dari Multi Jackpot www.yespoker88.com terima kasih dan selamat bermain salam hoki dari kami

Ceme Jackpot Winner

TOP ENAM DEWA
No.TanggalNamaPriceWin
122/07 09:09EGAN555murni enam3,333,000
222/07 09:09B0T4K21murni enam6,666,000
322/07 09:06DONGRAK08murni enam666,600
422/07 09:02SONIA06murni enam6,666,000
522/07 09:02LOYZ30murni enam666,600
TOP BALAK
No.TanggalNamaPriceWin
122/07 09:36JAYAA75balak200,000
222/07 09:36XIO_9balak200,000
322/07 09:35DARHENbalak100,000
422/07 09:34KITOPACAK8balak200,000
522/07 09:34KIPEKIPE99balak200,000
LATEST JACKPOT
No.TanggalNamaPriceWin
122/07 09:37TEKKENOImurni kecil50,000
222/07 09:37YQAKRIF9T5murni kecil50,000
322/07 09:37GALATAMASPmurni kecil50,000
422/07 09:37KITOPACAK8murni besar50,000
522/07 09:37P1IEmurni besar25,000
622/07 09:37JSMPNCK86murni besar50,000
722/07 09:37RASENDR1YAmurni besar50,000
822/07 09:37ACHER90murni kecil50,000
922/07 09:37NYARIS12murni kecil25,000
1022/07 09:37CLOWN207murni kecil50,000
1122/07 09:37CAP79murni kecil50,000
1222/07 09:37BRIMBmurni kecil25,000
1322/07 09:36YAPA284murni kecil25,000
1422/07 09:36ASEL335murni kecil50,000
1522/07 09:36BATAKTOLmurni kecil50,000
1622/07 09:36JAYAA75balak200,000
1722/07 09:36XIO_9balak200,000
1822/07 09:36GOLETDUITmurni kecil25,000
1922/07 09:36TEKKENOImurni kecil50,000
2022/07 09:36YQAKRIF9T5murni kecil50,000
2122/07 09:35ITEL_ASUmurni kecil25,000
2222/07 09:35KIPEKIPE99murni kecil50,000
2322/07 09:35PROPOUN330murni kecil50,000
2422/07 09:35DARHENmurni besar25,000
2522/07 09:35IMS303murni besar50,000
2622/07 09:35DARHENbalak100,000
2722/07 09:35HJCITAMmurni besar50,000
2822/07 09:35RAWAN133murni besar25,000
2922/07 09:35ZX456murni besar5,000
3022/07 09:35B40ATTEZ894murni besar25,000
3122/07 09:35IDORISmurni kecil50,000
3222/07 09:35WIGNYO2490murni besar50,000
3322/07 09:35KINGDON099murni kecil25,000
3422/07 09:35KINGDON099murni kecil25,000
3522/07 09:34KITOPACAK8balak200,000
3622/07 09:34LUPPYUmurni besar5,000
3722/07 09:34RANIEE02murni kecil50,000
3822/07 09:34KARISMA9murni kecil50,000
3922/07 09:34QORIB_Smurni besar50,000
4022/07 09:34SMS9988murni kecil50,000
4122/07 09:34JHO22murni kecil50,000
4222/07 09:34LAMISMANISmurni kecil50,000
4322/07 09:34KIPEKIPE99murni besar50,000
4422/07 09:34PHEPHENK13murni besar25,000
4522/07 09:34KIPEKIPE99balak200,000
4622/07 09:34AL0624balak100,000
4722/07 09:34FITA23balak20,000
4822/07 09:34AANDABOLmurni besar50,000
4922/07 09:34SKLANSKYmurni kecil50,000
5022/07 09:34UJILmurni besar50,000